Northport, AL

2:50 AM CST on February 14, 2016 (GMT -0600)
Tuscaloosa Municipal

Weather History for KTCL - April, 2013

Change the Weather History Date:

Tuesday, April 30, 2013

  Actual Average Record
Temperature  
Mean Temperature 68 °F 67 °F  
Max Temperature 84 °F 80 °F 92 °F (1987)
Min Temperature 52 °F 55 °F 42 °F (1969)
Degree Days  
Heating Degree Days 0 2  
Month to date heating degree days 110 120  
Since 1 July heating degree days 2376 2505  
Cooling Degree Days 2    
Growing Degree Days 18 (Base 50)    
Moisture  
Dew Point 56 °F    
Average Humidity 66    
Maximum Humidity 93    
Minimum Humidity 39    
Precipitation  
Precipitation 0.00 in 0.13 in 1.14 in (1976)
Month to date precipitation 3.92 4.21  
Year to date precipitation 19.44 19.42  
Sea Level Pressure  
Sea Level Pressure 29.96 in    
Wind  
Wind Speed 3 mph (ESE)    
Max Wind Speed 12 mph    
Max Gust Speed 18 mph    
Visibility 9 miles    
Events      
T = Trace of Precipitation, MM = Missing Value Source: NWS Daily Summary

Daily Weather History Graph

Daily Weather History Graph

Search for Another Location

Airport or City:

Trip Planner

Search our weather history database for the weather conditions in past years. The results will help you decide how hot, cold, wet, or windy it might be!

Date:

Astronomy

Apr. 30, 2013 Rise Set
Actual Time 6:03 AM CDT 7:32 PM CDT
Civil Twilight 5:36 AM CDT 7:58 PM CDT
Nautical Twilight 5:05 AM CDT 8:30 PM CDT
Astronomical Twilight 4:32 AM CDT 9:03 PM CDT
Moon No Moon Rise 10:34 AM CDT (4/30)
Length of Visible Light 14h 21m
Length of Day
13h 29m
Waning Gibbous, 70% of the Moon is Illuminated
Apr 30
Waning Gibbous
May 2
Last Quarter
May 9
New
May 17
First Quarter
May 24
Full

Hourly Weather History & Observations

Time (CDT) Temp. Heat Index Dew Point Humidity Pressure Visibility Wind Dir Wind Speed Gust Speed Precip Events Conditions
12:53 AM 57.0 °F - 54.0 °F 89% 29.95 in 8.0 mi Calm Calm - N/A   Clear
1:53 AM 55.9 °F - 53.1 °F 90% 29.94 in 8.0 mi Calm Calm - N/A   Clear
2:53 AM 54.0 °F - 52.0 °F 93% 29.94 in 8.0 mi Calm Calm - N/A   Clear
3:53 AM 54.0 °F - 51.1 °F 90% 29.95 in 8.0 mi Calm Calm - N/A   Clear
4:53 AM 54.0 °F - 51.1 °F 90% 29.96 in 9.0 mi Calm Calm - N/A   Clear
5:53 AM 53.1 °F - 50.0 °F 89% 29.96 in 8.0 mi Calm Calm - N/A   Clear
6:53 AM 55.0 °F - 52.0 °F 89% 29.99 in 7.0 mi Calm Calm - N/A   Clear
7:53 AM 61.0 °F - 55.0 °F 81% 30.00 in 9.0 mi NE 3.5 mph - N/A   Clear
8:53 AM 68.0 °F - 57.0 °F 68% 30.00 in 9.0 mi Calm Calm - N/A   Clear
9:53 AM 73.0 °F - 57.9 °F 59% 30.00 in 10.0 mi Calm Calm - N/A   Clear
10:53 AM 78.1 °F - 57.0 °F 48% 30.00 in 10.0 mi Variable 4.6 mph - N/A   Clear
11:53 AM 80.1 °F 80.0 °F 54.0 °F 40% 29.99 in 10.0 mi ENE 3.5 mph - N/A   Partly Cloudy
12:53 PM 81.0 °F 80.5 °F 54.0 °F 39% 29.98 in 10.0 mi SW 5.8 mph - N/A   Clear
1:53 PM 82.0 °F 81.6 °F 55.9 °F 41% 29.96 in 10.0 mi SSW 6.9 mph - N/A   Partly Cloudy
2:53 PM 81.0 °F 81.0 °F 57.0 °F 44% 29.95 in 10.0 mi ESE 5.8 mph - N/A   Partly Cloudy
3:53 PM 82.9 °F 82.6 °F 57.9 °F 42% 29.92 in 10.0 mi SSE 9.2 mph - N/A   Clear
4:53 PM 82.0 °F 82.1 °F 59.0 °F 45% 29.93 in 10.0 mi SSE 4.6 mph - N/A   Clear
5:53 PM 81.0 °F 81.3 °F 59.0 °F 47% 29.92 in 10.0 mi SE 6.9 mph - N/A   Clear
6:53 PM 79.0 °F - 59.0 °F 50% 29.94 in 10.0 mi East 3.5 mph - N/A   Clear
8:53 PM 72.0 °F - 62.1 °F 71% 29.96 in 10.0 mi East 3.5 mph - N/A   Clear
9:53 PM 70.0 °F - 62.1 °F 76% 29.97 in 10.0 mi Calm Calm - N/A   Clear
11:53 PM 72.0 °F - 62.1 °F 71% 29.99 in 10.0 mi East 4.6 mph - N/A   Clear